Location: Newark
(32.8014°N, 52.8711°E)
Time: 20:14:56
(UTC+00:00)

Envisat - Visible Passes

Search period start: 24 January 2020 00:00
Search period end: 03 February 2020 00:00
Orbit: 764 x 766 km, 98.1° (Epoch: 24 January)

Date Brightness Start Highest point End Pass type
(mag) Time Alt. Az. Time Alt. Az. Time Alt. Az.
24 Jan 6.1 01:56:00 10° ENE 01:58:48 15° E 02:01:37 10° SE visible
24 Jan 3.7 14:42:56 10° S 14:47:56 60° W 14:52:57 10° NNW visible
25 Jan 3.5 02:56:16 10° NNE 03:01:20 69° E 03:06:23 10° S visible
25 Jan 6.2 15:48:17 10° WSW 15:50:30 13° W 15:52:44 10° WNW visible
26 Jan 5.3 02:20:09 10° NE 02:24:28 28° E 02:28:46 10° SSE visible
26 Jan 5.0 15:09:01 10° SSW 15:13:29 31° W 15:18:00 10° NW visible
27 Jan 6.4 01:46:04 10° ENE 01:47:25 11° E 01:48:46 10° ESE visible
27 Jan 3.2 14:31:34 10° S 14:36:38 78° WSW 14:41:44 10° NNW visible
28 Jan 4.0 02:45:05 10° NNE 02:50:02 52° E 02:54:58 10° S visible
28 Jan 6.0 15:35:53 10° SW 15:39:07 17° W 15:42:23 10° NW visible
29 Jan 5.7 02:09:16 10° NE 02:13:07 21° E 02:16:56 10° SE visible
29 Jan 4.4 14:57:24 10° SSW 15:02:09 41° W 15:06:56 10° NNW visible
30 Jan 3.0 14:20:18 10° SSE 14:25:21 81° ENE 14:30:27 10° N visible
31 Jan 4.6 02:33:57 10° NNE 02:38:43 40° E 02:43:27 10° SSE visible
31 Jan 5.6 15:23:52 10° SW 15:27:46 22° W 15:31:40 10° NW visible
01 Feb 6.1 01:58:34 10° NE 02:01:45 16° E 02:04:53 10° SE visible
01 Feb 3.9 14:45:54 10° S 14:50:50 54° W 14:55:49 10° NNW visible
02 Feb 6.4 15:51:51 10° WSW 15:53:27 11° W 15:55:02 10° WNW visible
